Location: Clarion
(42.7316°N, 93.7330°W)
Time: 09:18:21
(UTC+00:00)

Aureole 3 - Pass Details

Date: 22 April 2026
Orbit: 373 x 1024 km, 82.5° (Epoch: 17 May)

Event Time Altitude Azimuth Distance (km) Brightness Sun altitude
Rises 01:59:06 0° 355° (N) 3,115 7.6 -10.1°
Reaches altitude 10° 02:01:17 10° 358° (N) 2,286 6.9 -10.5°
Maximum altitude 02:06:29 66° 81° (E) 932 4.2 -11.3°
Drops below altitude 10° 02:12:34 10° 163° (SSE) 2,662 6.4 -12.3°
Enters shadow 02:13:55 - 165° (SSE) 3,166 6.8 -12.5°
